User: anonymous   Login
Location: Passau
(48.5830°N, 13.4830°E)
Time: 19:19:36
(UTC+01:00)
Language:

NUDT-PHONESAT - Orbit

View from above orbital plane
View from above orbital plane
View from above satellite
View from above satellite

Ground track
Ground track

The orbit data is extracted from the following two-line orbital elements,

1 40900U 15049B   21341.14800071  .00007635  00000-0  27840-3 0  9999
2 40900  97.4140 354.2768 0009280 245.6190 183.4322 15.28413243345188
Epoch (UTC): 07 December 2021 03:33:07
Eccentricity: 0.0009280
inclination: 97.4140°
perigee height: 474 km
apogee height: 487 km
right ascension of ascending node: 354.2768°
argument of perigee: 245.6190°
revolutions per day: 15.28413243
mean anomaly at epoch: 183.4322°
orbit number at epoch: 34518

The dashed part of the orbit path shows where the satellite is in the earth's shadow,  

DLR